Погода в Первотроицке

Россия / Новосибирская область     55°05′32″N   80°22′38″E
темп.,
°C
ветер,
м/с
пор.,
м/с
влажн.,
%
обл.,
%
осадки,
мм/ч
давл.,
гПа
погр.,
м
8 марта, пн
пн801:00−10ююв5108568 0.0 1018245
04:00−5ю71594100 0.0 1014485
07:00−4ю71691100 0.0 1012468
10:00−4ю81590100 0.0 1008483
13:00−2ю91587100 0.0 1005633
16:00−3юз101686100 0.0 1003949
19:00−2зюз91396100 0.8 1006823
22:00−11з6149087 0.3 1012405
9 марта, вт
вт901:00−13зюз6129386 0.3 1017330
04:00−13зюз61293100 0.0 1020425
07:00−17юз5109596 0.0 1022244
10:00−15ююз7149383 0.0 1023353
13:00−11юз8148589 0.0 1023596
16:00−9юз712851 0.0 1022595
19:00−10ююз6128850 0.0 1021483
22:00−13ююз6139074 0.0 1020323
10 марта, ср
ср1001:00−14ююз6149161 0.0 1019293
04:00−14юз5139043 0.0 1018289
07:00−13юз499172 0.0 1018259
10:00−12ююз4791100 0.0 1018243
13:00−9ю3589100 0.0 1017266
16:00−6юв3588100 0.0 1013264
19:00−5вюв51189100 0.0 1008431
22:000ююв81593100 0.1 1003850
11 марта, чт
чт1101:00+1ююз91699100 3.3 998622
04:00−2юз121886100 0.3 998793
07:00−9зюз10188899 0.4 1004756
10:00−10юз81691100 0.1 1009566
13:00−7юз81391100 0.1 1011729
16:00−6юз91287100 0.1 10121004
19:00−8юз61388100 0.2 1014686
22:00−11ю61291100 0.0 1016344
12 марта, пт
пт1201:00−10ююв6148899 0.1 1011373
04:00−6юз121882100 1.1 1008939
07:00−12юз91690100 1.2 1010626
10:00−15юз81491100 0.1 1014645
13:00−15юз81187100 0.1 1016876
16:00−15юз71187100 0.1 1017896
19:00−16юз51192100 0.1 1017668
22:00−17зюз61194100 0.1 1019645